Location: Bednik
(45.3500°N, 16.3833°E)
Time: 07:36:30
(UTC+00:00)

Cosmos 1862 Rocket - Pass Details

Date: 08 August 2020
Orbit: 603 x 635 km, 82.5° (Epoch: 26 September)

Event Time Altitude Azimuth Distance (km) Brightness Sun altitude
Rises 19:52:18 0° 354° (N) 2,940 7.8 -15.5°
Reaches altitude 10° 19:54:35 10° 358° (N) 2,024 6.8 -15.8°
Maximum altitude 19:59:01 59° 78° (ENE) 729 3.7 -16.4°
Enters shadow 20:00:58 31° 146° (SE) 1,104 4.3 -16.6°
